Location: Leuk
(46.3174°N, 7.6341°E)
Time: 20:56:15
(UTC+00:00)

Cosmos 2251 Rocket - Pass Details

Date: 09 March 2021
Orbit: 765 x 792 km, 74.0° (Epoch: 20 April)

Event Time Altitude Azimuth Distance (km) Brightness Sun altitude
Exits shadow 03:53:46 42° 224° (SW) 1,108 3.9 -21.3°
Maximum altitude 03:55:31 70° 293° (WNW) 841 3.5 -21.0°
Drops below altitude 10° 04:00:54 10° 18° (NNE) 2,366 6.4 -20.1°
Sets 04:03:19 0° 21° (NNE) 3,301 7.3 -19.7°
